Location: Unspecified
(0.0000°N, 0.0000°E)
Time: 01:28:54
(UTC+00:00)

SR - Pass Details

Date: 06 October 2020
Orbit: 581 x 874 km, 66.7° (Epoch: 25 October)

Event Time Altitude Azimuth Distance (km) Brightness Sun altitude
Rises 05:13:18 0° 176° (S) 3,049 ? -8.7°
Reaches altitude 10° 05:16:11 10° 160° (SSE) 2,076 ? -7.9°
Maximum altitude 05:19:41 21° 112° (ESE) 1,429 ? -7.1°
Drops below altitude 10° 05:23:00 10° 63° (ENE) 1,960 ? -6.2°
Sets 05:25:37 0° 46° (NE) 2,828 ? -5.6°
